EW4117 Gor ES current weather conditions

sailwx.info

Wind from 357 at 0 knots gusting 3

Air temperature 14.4° C
Dewpoint 7.2° C

Last reported at 2020-Sep-19 09:01 UTC.
Time now 2020-Sep-19 10:11 UTC

Location: N 37°22' W 002°59'.
View on Google Maps.

See reports from other nearby stations

  
Tides and Currents Weather Stations Pressure Air Temp Water Temp Dewpoint Dewpoint Depression Visibility Wind Speed Wind Dir Waves Ship Positions
date/time (UTC)wind fromknots sea level pressurealtimeterstation pressurevisibilityair tempwater tempwave heightnotes
2020-Sep-19 09:01 357 0 gusting 3 14.4
2020-Sep-19 08:46 307 2 gusting 4 13.9
2020-Sep-19 08:31 357 2 gusting 5 13.9
2020-Sep-19 08:17 322 14.4
2020-Sep-19 08:01 290 2 gusting 7 14.4
2020-Sep-19 07:46 249 2 gusting 6 13.9
2020-Sep-19 07:31 201 13.3
2020-Sep-19 07:01 219 0 gusting 1 11.7
2020-Sep-19 06:46 221 0 gusting 3 11.1
2020-Sep-19 06:30 186 2 gusting 6 10.6
2020-Sep-19 06:01 215 1 gusting 5 10.6
2020-Sep-19 05:47 222 1 gusting 5 10.6
2020-Sep-19 05:31 216 1 gusting 5 11.1
2020-Sep-19 05:00 217 1 gusting 4 11.1
2020-Sep-19 04:45 231 1 gusting 6 11.1
2020-Sep-19 04:31 203 2 gusting 7 11.1
2020-Sep-19 04:15 210 1 gusting 3 11.1
2020-Sep-19 04:01 236 1 gusting 3 11.1
2020-Sep-19 03:45 259 3 gusting 6 11.7
2020-Sep-19 03:30 245 6 gusting 11 11.7
2020-Sep-19 03:15 236 3 gusting 7 11.7
2020-Sep-19 03:00 215 2 gusting 6 11.7
2020-Sep-19 02:45 200 0 gusting 5 11.1
2020-Sep-19 02:30 218 3 gusting 6 11.7
2020-Sep-19 02:15 223 2 gusting 6 11.7
2020-Sep-19 02:00 206 1 gusting 3 11.7
2020-Sep-19 01:45 231 1 gusting 3 11.7
2020-Sep-19 01:30 240 11.7
2020-Sep-19 01:00 234 0 gusting 3 12.2
2020-Sep-19 00:45 338 12.2
2020-Sep-19 00:32 231 0 gusting 2 11.7
2020-Sep-19 00:17 132 0 gusting 2 11.7
2020-Sep-19 00:01 119 12.2
2020-Sep-18 23:46 115 12.2
2020-Sep-18 23:31 219 1 gusting 3 12.2
2020-Sep-18 23:16 283 12.8
2020-Sep-18 23:02 226 12.8
2020-Sep-18 22:30 174 1 gusting 6 13.3
2020-Sep-18 22:16 150 0 gusting 2 13.3
2020-Sep-18 22:01 210 1 gusting 3 13.9
2020-Sep-18 21:46 217 2 gusting 8 14.4
2020-Sep-18 21:30 247 5 gusting 9 14.4
2020-Sep-18 21:16 240 4 gusting 11 14.4
2020-Sep-18 21:01 280 6 gusting 12 15.0
2020-Sep-18 20:46 235 4 gusting 9 15.0
2020-Sep-18 20:30 252 4 gusting 7 15.6
2020-Sep-18 20:15 217 2 gusting 9 16.1
2020-Sep-18 20:00 225 2 gusting 6 16.1
2020-Sep-18 19:45 155 2 gusting 8 16.1
2020-Sep-18 19:30 192 6 gusting 11 16.7
2020-Sep-18 19:16 167 4 gusting 8 16.7
2020-Sep-18 19:01 210 3 gusting 8 17.2
2020-Sep-18 18:45 148 5 gusting 8 17.2
2020-Sep-18 18:30 172 6 gusting 7 17.2
2020-Sep-18 18:15 217 7 gusting 13 17.8
2020-Sep-18 18:01 224 6 gusting 10 18.3
2020-Sep-18 17:45 207 6 gusting 10 19.4
2020-Sep-18 17:31 210 9 gusting 18 19.4
2020-Sep-18 17:15 191 11 gusting 20 20.0
2020-Sep-18 17:00 196 10 gusting 21 20.0
2020-Sep-18 16:45 195 9 gusting 23 20.6
2020-Sep-18 16:30 210 13 gusting 19 20.6
2020-Sep-18 16:15 205 15 gusting 23 20.0
2020-Sep-18 16:00 171 6 gusting 19 21.1
2020-Sep-18 15:45 216 12 gusting 20 21.1
2020-Sep-18 15:30 208 13 gusting 29 21.1
2020-Sep-18 15:15 196 13 gusting 30 21.1
2020-Sep-18 15:00 207 13 gusting 22 21.1
2020-Sep-18 14:45 186 15 gusting 23 21.1
2020-Sep-18 14:30 193 14 gusting 25 21.1
2020-Sep-18 14:00 176 11 gusting 26 21.1
2020-Sep-18 13:45 192 12 gusting 26 20.6
2020-Sep-18 13:30 193 12 gusting 21 20.0
2020-Sep-18 13:15 165 13 gusting 22 20.0
2020-Sep-18 13:00 190 12 gusting 23 20.0
2020-Sep-18 12:45 172 10 gusting 18 20.6
2020-Sep-18 12:32 158 10 gusting 22 20.6
2020-Sep-18 12:17 193 12 gusting 22 20.0
2020-Sep-18 12:01 195 8 gusting 16 18.3
2020-Sep-18 11:46 186 4 gusting 13 17.2
2020-Sep-18 11:32 202 9 gusting 13 18.3
2020-Sep-18 11:17 173 5 gusting 13 17.2
2020-Sep-18 11:01 213 7 gusting 11 17.8
2020-Sep-18 10:47 189 6 gusting 19 16.7
2020-Sep-18 10:31 184 12 gusting 24 16.1
2020-Sep-18 10:17 222 15 gusting 32 16.1
2020-Sep-18 10:01 220 15 gusting 25 15.0
2020-Sep-18 09:46 141 13 gusting 19 13.9
2020-Sep-18 09:31 169 6 gusting 10 13.3
2020-Sep-18 09:16 216 5 gusting 8 13.9
2020-Sep-18 09:01 163 4 gusting 14 14.4
2020-Sep-18 08:46 148 8 gusting 18 15.0
2020-Sep-18 08:32 188 12 gusting 20 14.4
2020-Sep-18 08:18 139 10 gusting 14 14.4
2020-Sep-18 08:01 169 4 gusting 11 15.0
2020-Sep-18 07:46 137 6 gusting 13 15.0
2020-Sep-18 07:31 155 12 gusting 19 15.6
2020-Sep-18 07:15 155 15 gusting 23 16.1
2020-Sep-18 06:46 145 18 gusting 24 16.1
2020-Sep-18 06:30 141 18 gusting 26 16.7
2020-Sep-18 06:15 146 12 gusting 22 16.7
2020-Sep-18 06:00 142 16 gusting 20 16.1
2020-Sep-18 05:46 141 16 gusting 26 16.7
2020-Sep-18 05:31 166 13 gusting 23 16.7
2020-Sep-18 05:15 172 15 gusting 22 16.7
2020-Sep-18 04:45 143 13 gusting 21 16.7
2020-Sep-18 04:31 155 15 gusting 22 16.1
2020-Sep-18 04:15 158 13 gusting 21 15.6
2020-Sep-18 03:45 134 13 gusting 24 14.4
2020-Sep-18 03:30 163 14 gusting 21 13.9
2020-Sep-18 03:15 167 9 gusting 14 13.9
2020-Sep-18 02:45 205 4 gusting 12 13.3
2020-Sep-18 02:30 234 7 gusting 12 13.3
2020-Sep-18 02:16 221 6 gusting 16 13.3
2020-Sep-18 01:46 212 7 gusting 15 13.3
2020-Sep-18 01:31 235 10 gusting 19 13.9
2020-Sep-18 01:16 253 6 gusting 13 13.9
2020-Sep-18 01:01 262 3 gusting 13 13.9
2020-Sep-18 00:45 219 5 gusting 10 13.9
2020-Sep-18 00:32 332 4 gusting 8 14.4
2020-Sep-18 00:16 296 2 gusting 6 14.4
2020-Sep-17 23:46 296 2 gusting 6 15.0
2020-Sep-17 23:32 297 15.6
2020-Sep-17 23:17 144 8 gusting 13 15.0
2020-Sep-17 23:01 166 8 gusting 16 15.0
2020-Sep-17 22:45 112 3 gusting 10 15.0
2020-Sep-17 22:33 146 5 gusting 9 14.4
2020-Sep-17 22:16 236 6 gusting 13 14.4
2020-Sep-17 22:00 237 8 gusting 17 16.1
2020-Sep-17 21:45 259 2 gusting 7 16.1
2020-Sep-17 21:30 153 2 gusting 3 15.6
2020-Sep-17 21:16 142 0 gusting 2 15.6
2020-Sep-17 21:00 226 2 gusting 9 16.1
2020-Sep-17 20:45 210 4 gusting 13 17.2
2020-Sep-17 20:30 236 3 gusting 7 16.7
2020-Sep-17 20:15 179 3 gusting 9 16.1
2020-Sep-17 20:00 214 7 gusting 13 16.7
2020-Sep-17 19:46 225 12 gusting 19 18.3
2020-Sep-17 19:30 200 3 gusting 6 19.4
2020-Sep-17 19:15 214 4 gusting 11 19.4
2020-Sep-17 19:00 198 8 gusting 19 20.0
2020-Sep-17 18:46 159 11 gusting 19 20.0
2020-Sep-17 18:30 184 13 gusting 20 20.6
2020-Sep-17 18:15 150 13 gusting 18 21.1
2020-Sep-17 18:00 160 8 gusting 16 21.1
2020-Sep-17 17:45 164 9 gusting 17 21.1
2020-Sep-17 17:30 150 9 gusting 15 21.7
2020-Sep-17 17:15 147 11 gusting 19 21.7
2020-Sep-17 17:00 143 11 gusting 19 22.2
2020-Sep-17 16:30 153 12 gusting 19 22.2
2020-Sep-17 16:15 176 10 gusting 19 22.2
2020-Sep-17 16:00 155 11 gusting 18 22.8
2020-Sep-17 15:45 132 8 gusting 19 22.8
2020-Sep-17 15:30 181 11 gusting 19 22.8
2020-Sep-17 15:18 157 10 gusting 15 22.8
2020-Sep-17 15:02 159 8 gusting 13 23.9
2020-Sep-17 14:46 214 5 gusting 12 23.9
2020-Sep-17 14:32 261 2 gusting 16 24.4
2020-Sep-17 14:17 191 4 gusting 16 24.4
2020-Sep-17 14:02 158 8 gusting 13 25.0
2020-Sep-17 13:46 213 5 gusting 10 23.9
2020-Sep-17 13:31 213 8 gusting 14 24.4
2020-Sep-17 13:16 216 6 gusting 15 24.4
2020-Sep-17 13:01 219 8 gusting 13 24.4
2020-Sep-17 12:46 250 5 gusting 13 23.9
2020-Sep-17 12:30 200 6 gusting 11 23.9
2020-Sep-17 12:16 258 1 gusting 6 23.3
2020-Sep-17 12:01 257 3 gusting 8 23.3
2020-Sep-17 11:46 311 2 gusting 6 22.8
2020-Sep-17 11:31 261 3 gusting 8 22.8
2020-Sep-17 11:16 210 4 gusting 11 23.3
2020-Sep-17 11:00 236 1 gusting 8 23.9
2020-Sep-17 10:45 216 6 gusting 12 23.3
2020-Sep-17 10:30 167 7 gusting 13 22.8
2020-Sep-17 10:15 193 8 gusting 13 22.2
2020-Sep-17 10:00 193 7 gusting 13 21.1